{"data":{"norad_id":63578,"epoch":"2026-05-25T00:16:22.890720Z","epoch_age_seconds":69941,"freshness":"FRESH","line1":"1 63578U 25076K   26145.01137605  .00017131  00000+0  63065-3 0  9995","line2":"2 63578  43.0008 250.6043 0001814 268.4705  91.5939 15.27576626 63509","mean_motion":15.27576626,"eccentricity":0.0001814,"inclination_deg":43.0008,"raan_deg":250.6043,"arg_perigee_deg":268.4705,"mean_anomaly_deg":91.5939,"bstar":0.00063065,"rev_number":6350,"period_min":94.266956923181,"perigee_km":481.81457803754,"apogee_km":484.30382001854,"semimajor_km":6861.196199028,"source":"CELESTRAK","updated_at":"2026-05-25T13:38:20.047297Z"}}